Location: Herksen
(52.4316°N, 6.1319°E)
Time: 12:03:12
(UTC+00:00)

NOSS 3-4 (C) - Pass Details

Date: 15 May 2026
Orbit: 773 x 1438 km, 63.4° (Epoch: 26 December)

Event Time Altitude Azimuth Distance (km) Brightness Sun altitude
Rises 20:39:48 0° 313° (NW) 3,635 8.8 -9.4°
Reaches altitude 10° 20:42:11 10° 313° (NW) 2,769 7.5 -9.6°
Maximum altitude 20:48:47 81° 227° (SW) 1,141 3.9 -10.3°
Enters shadow 20:55:45 13° 142° (SE) 2,961 5.3 -10.9°
